User: anonymous   Login
Location: Pedimozza
(42.0500°N, 9.3500°E)
Time: 01:04:25
(UTC+00:00)
Language:

SPOT 5 - Orbit

View from above orbital plane
View from above orbital plane
View from above satellite
View from above satellite

Ground track
Ground track

The orbit data is extracted from the following two-line orbital elements,

1 27421U 02021A   19293.70795284 -.00000028  00000-0  55856-5 0  9992
2 27421  98.3008   2.5945 0134284 225.0948 133.9290 14.52005424909814
Epoch (UTC): 20 October 2019 16:59:27
Eccentricity: 0.0134284
inclination: 98.3008°
perigee height: 624 km
apogee height: 814 km
right ascension of ascending node: 2.5945°
argument of perigee: 225.0948°
revolutions per day: 14.52005424
mean anomaly at epoch: 133.9290°
orbit number at epoch: 90981

The dashed part of the orbit path shows where the satellite is in the earth's shadow,  

DLR